Tracking 20712 objects as of 29-May-2020
HD Live streaming from Space Station
objects crossing your sky now

IRIDIUM 33 DEB

Track IRIDIUM 33 DEB now!
10-day predictions


NORAD ID: 34366
Int'l Code: 1997-051FJ
Perigee: 757.5 km
Apogee: 791.6 km
Inclination: 86.4 °
Period: 100.2 minutes
Semi major axis: 7145 km
RCS: 0.0424 m2 (small)
Launch date: September 14, 1997
Source: United States (US)
Launch site: TYURATAM MISSILE AND SPACE COMPLEX (TTMTR)

Note: This is SATELLITE DEBRIS
aabbcc
Your satellite tracking list
Your tracking list is empty




NASA's NSSDC Master Catalog

Two Line Element Set (TLE):
1 34366U 97051FJ  20149.86820808 +.00000280 +00000-0 +86968-4 0  9991
2 34366 086.3803 191.6231 0023842 007.0447 117.9422 14.37316909590100
Source of the keplerian elements: AFSPC